Voltar ao catálogo

COSMOS 1285 DEB

LostHEO
NORAD 33526·DEBRIS·🇷🇺 Russia

Lançado Aug 4, 1981 de Plesetsk Cosmodrome

Loading…

Próximas Passagens (próximas 24 horas)

TLE

ObsoletoSource: Space-Track

Época: Sep 12, 2011, 21:29 UTC

1 33526U 81071AB  11255.89582722 -.00000077 +00000-0 +10000-3 0  9992
2 33526 066.9178 145.7376 5699344 113.0450 315.2411 01.98032254059774

Acompanhe COSMOS 1285 DEB em tempo real com AllMySat

Download on the App Store